TimeEDT,TemperatureF,Dew PointF,Humidity,Sea Level PressureIn,VisibilityMPH,Wind Direction,Wind SpeedMPH,Gust SpeedMPH,PrecipitationIn,Events,Conditions,WindDirDegrees,DateUTC
12:53 AM,68.0,64.0,87,30.14,10.0,East,3.5,-,N/A,,Clear,80,2013-06-20 04:53:00
1:53 AM,64.9,63.0,93,30.15,8.0,NNE,3.5,-,N/A,,Clear,30,2013-06-20 05:53:00
2:53 AM,64.0,62.1,93,30.15,7.0,NE,4.6,-,N/A,,Clear,40,2013-06-20 06:53:00
3:53 AM,63.0,61.0,93,30.15,8.0,Calm,Calm,-,N/A,,Clear,0,2013-06-20 07:53:00
4:53 AM,62.1,60.1,93,30.17,7.0,NNE,5.8,-,N/A,,Clear,30,2013-06-20 08:53:00
5:03 AM,62.6,60.8,94,30.17,6.0,NNE,5.8,-,N/A,,Partly Cloudy,30,2013-06-20 09:03:00
5:53 AM,63.0,61.0,93,30.18,7.0,NNE,5.8,-,N/A,,Partly Cloudy,30,2013-06-20 09:53:00
6:23 AM,62.6,60.8,94,30.19,7.0,NNE,5.8,-,N/A,,Mostly Cloudy,30,2013-06-20 10:23:00
6:53 AM,64.0,61.0,90,30.19,8.0,NNE,4.6,-,N/A,,Scattered Clouds,30,2013-06-20 10:53:00
7:53 AM,66.0,62.1,87,30.22,10.0,NNE,5.8,-,N/A,,Scattered Clouds,30,2013-06-20 11:53:00
8:53 AM,70.0,61.0,73,30.23,10.0,NNE,4.6,-,N/A,,Clear,30,2013-06-20 12:53:00
9:53 AM,73.9,57.0,55,30.23,10.0,NE,9.2,-,N/A,,Clear,40,2013-06-20 13:53:00
10:53 AM,77.0,57.0,50,30.24,10.0,East,6.9,-,N/A,,Clear,90,2013-06-20 14:53:00
11:53 AM,79.0,57.0,47,30.24,10.0,NE,11.5,-,N/A,,Clear,40,2013-06-20 15:53:00
12:53 PM,80.1,57.9,47,30.23,10.0,NE,9.2,-,N/A,,Clear,40,2013-06-20 16:53:00
1:53 PM,82.0,57.9,44,30.22,10.0,NNE,5.8,-,N/A,,Clear,20,2013-06-20 17:53:00
2:53 PM,82.0,57.9,44,30.22,10.0,NNE,13.8,-,N/A,,Clear,20,2013-06-20 18:53:00
3:53 PM,82.0,57.9,44,30.21,10.0,NNE,9.2,-,N/A,,Clear,30,2013-06-20 19:53:00
4:53 PM,82.0,57.0,42,30.20,10.0,North,5.8,-,N/A,,Clear,10,2013-06-20 20:53:00
5:53 PM,81.0,55.0,41,30.19,10.0,NNE,9.2,-,N/A,,Clear,20,2013-06-20 21:53:00
6:53 PM,78.1,54.0,43,30.20,10.0,North,5.8,-,N/A,,Clear,360,2013-06-20 22:53:00
7:53 PM,73.9,57.0,55,30.21,10.0,NNE,4.6,-,N/A,,Clear,30,2013-06-20 23:53:00
8:53 PM,71.1,54.0,55,30.22,10.0,NE,3.5,-,N/A,,Clear,50,2013-06-21 00:53:00
9:53 PM,66.0,55.9,70,30.23,10.0,NE,3.5,-,N/A,,Clear,40,2013-06-21 01:53:00
10:53 PM,66.0,54.0,65,30.25,10.0,NE,5.8,-,N/A,,Clear,50,2013-06-21 02:53:00
11:53 PM,64.9,54.0,68,30.25,10.0,ENE,3.5,-,N/A,,Clear,60,2013-06-21 03:53:00